This is the latest recevied weather packets stored in our database for station/object KC5DAQ-22. If no packets are shown the sender has not sent any weather packets the latest 10 day(s).
| Time | Temp. | Humidity | Pressure | Rain* | Wind** | Luminosity | Snow |
|---|---|---|---|---|---|---|---|
| 1778195443 | 25.56° C | 72% | 1011.3 hPa | 0 mm | - | 223 W/m² | - |
| 1778195379 | 25.56° C | 72% | 1011.3 hPa | 0 mm | - | 230 W/m² | - |
| 1778195319 | 25.56° C | 72% | 1011.3 hPa | 0 mm | - | 313 W/m² | - |
| 1778195257 | 25.56° C | 72% | 1011.4 hPa | 0 mm | - | 295 W/m² | - |
| 1778195192 | 25.56° C | 72% | 1011.3 hPa | 0 mm | - | 294 W/m² | - |
| 1778195131 | 25.56° C | 73% | 1011.4 hPa | 0 mm | - | 246 W/m² | - |
| 1778195072 | 25.56° C | 72% | 1011.4 hPa | 0 mm | - | 259 W/m² | - |
| 1778195011 | 25.56° C | 72% | 1011.4 hPa | 0 mm | - | 273 W/m² | - |
| 1778194953 | 25.56° C | 72% | 1011.4 hPa | 0 mm | - | 278 W/m² | - |
| 1778194891 | 25.56° C | 72% | 1011.4 hPa | 0 mm | - | 278 W/m² | - |
| 1778194831 | 25.56° C | 72% | 1011.3 hPa | 0 mm | - | 404 W/m² | - |
| 1778194771 | 25.56° C | 72% | 1011.2 hPa | 0 mm | - | 443 W/m² | - |
| 1778194712 | 25° C | 72% | 1011.3 hPa | 0 mm | - | 306 W/m² | - |
| 1778194654 | 25° C | 73% | 1011.2 hPa | 0 mm | - | 262 W/m² | - |
| 1778194593 | 25° C | 73% | 1011.2 hPa | 0 mm | - | 262 W/m² | - |
| 1778194531 | 25° C | 73% | 1011.2 hPa | 0 mm | - | 237 W/m² | - |
| 1778194471 | 25.56° C | 73% | 1011.3 hPa | 0 mm | - | 237 W/m² | - |
| 1778194411 | 25° C | 73% | 1011.1 hPa | 0 mm | - | 218 W/m² | - |
| 1778194352 | 25° C | 73% | 1011.1 hPa | 0 mm | - | 216 W/m² | - |
| 1778194291 | 25° C | 73% | 1011.1 hPa | 0 mm | - | 209 W/m² | - |
| 1778194233 | 25° C | 72% | 1011 hPa | 0 mm | - | 211 W/m² | - |
| 1778194172 | 25° C | 73% | 1011.1 hPa | 0 mm | - | 216 W/m² | - |
| 1778194111 | 25° C | 72% | 1011 hPa | 0 mm | - | 220 W/m² | - |
| 1778194052 | 25° C | 73% | 1011.1 hPa | 0 mm | - | 227 W/m² | - |
| 1778193991 | 25.56° C | 73% | 1011.1 hPa | 0 mm | - | 213 W/m² | - |
* Rain latest hour (hover to see other rain measurements)
** Current wind speed in m/s (hover to see current wind gust speed)